Wind_Speed
23 19 16 14 13 13 13 14 14 14 14 14 14 14 14 14 15 15 15 16 18 19 20 19 19 18 18 17 16 15 14 14 14 15 15 13 11 11 13 14 15 15 14 13 11 11 10 10 10 10 10 10 9 8 7 5 4 3 5 6 7 7 7 7 6 7 7 7 7 7 8 8 6 5 4 4 3 2 0 2 3 4 6 7 8
21 16 15 13 12 12 13 13 14 14 14 14 14 14 14 15 15 15 16 16 18 19 20 20 20 20 19 18 18 17 16 16 15 16 17 15 13 12 13 14 15 15 14 14 13 12 11 11 10 10 10 10 10 9 7 6 4 4 5 6 6 7 7 7 7 7 7 7 7 7 8 8 6 5 5 4 3 2 0 1 3 4 5 6 8
20 16 14 13 13 14 14 14 14 14 15 15 15 15 15 15 15 15 15 16 17 18 19 20 21 21 21 20 19 19 18 17 17 17 18 17 16 14 13 14 15 15 15 15 14 13 12 11 10 10 11 10 10 9 8 7 6 5 6 6 6 6 7 7 7 7 7 8 8 7 7 7 6 5 5 5 3 2 1 1 2 4 5 6 8
21 18 14 13 14 15 16 16 16 16 15 15 15 16 16 16 16 16 16 16 17 17 18 18 19 20 22 22 21 21 20 19 18 18 18 19 19 16 14 14 15 16 16 16 15 14 13 11 10 10 11 10 10 9 9 9 8 7 7 7 6 6 6 6 6 7 8 8 8 8 7 6 6 6 6 5 4 3 2 1 2 3 5 6 7
19 17 15 15 15 15 15 16 16 16 15 15 15 15 16 16 16 16 17 17 18 18 19 19 18 18 20 22 23 22 22 21 21 19 17 18 20 19 16 14 14 15 15 16 16 14 13 11 10 10 11 10 9 9 10 10 10 9 8 7 6 6 6 6 6 7 8 8 8 8 7 7 6 6 6 5 4 3 3 2 2 3 5 6 7
15 14 15 15 14 14 14 14 14 15 15 15 14 14 14 15 15 16 16 16 17 18 20 21 21 20 19 20 22 23 22 22 22 21 19 17 18 19 19 17 15 13 14 15 15 15 14 12 11 11 11 10 9 10 12 12 12 10 9 8 7 6 6 6 7 7 8 8 8 8 7 7 7 7 6 5 4 4 3 2 2 3 4 6 7
12 13 14 14 14 13 12 12 13 13 13 13 13 13 14 15 15 16 16 16 16 18 20 21 22 22 21 20 20 23 23 22 22 22 21 19 18 18 18 19 18 15 14 14 15 15 15 14 12 12 11 11 10 12 13 14 13 12 11 9 8 7 6 6 7 8 8 8 8 8 8 8 8 8 7 6 5 4 3 2 2 3 4 5 7
11 12 13 14 13 12 11 11 11 11 10 10 11 12 14 15 16 16 16 16 17 18 19 20 22 22 23 22 21 21 23 23 22 22 22 21 20 18 17 17 18 18 16 14 16 17 17 16 14 13 12 11 11 13 14 15 15 13 12 10 9 7 6 7 7 8 8 8 8 8 8 8 8 8 8 7 5 4 3 2 2 2 4 5 6
10 11 12 13 13 12 11 11 11 10 9 9 9 11 13 14 15 15 16 17 18 19 19 19 20 21 22 23 22 21 23 23 22 22 22 22 21 20 19 16 15 15 15 16 18 18 18 18 16 14 12 12 12 13 15 15 15 15 13 11 10 8 7 8 8 8 8 8 8 8 8 8 9 8 8 7 6 4 3 3 2 2 3 4 6
9 11 12 13 14 13 13 13 12 11 11 10 11 12 13 14 14 14 15 16 18 20 20 20 20 20 19 19 21 21 22 24 23 22 22 23 22 22 21 20 17 16 15 16 17 18 19 18 17 15 14 14 13 14 15 15 16 16 15 12 11 9 9 9 8 8 7 8 8 9 9 9 9 8 8 8 7 5 3 3 3 2 3 4 5
11 13 14 15 15 16 17 17 16 14 14 14 14 14 15 15 15 14 14 16 18 20 20 20 21 21 20 18 19 21 22 23 24 23 23 23 23 23 22 22 21 19 17 16 16 17 18 18 17 16 16 16 15 15 16 16 17 17 16 13 12 11 10 10 9 8 8 8 8 9 9 9 9 8 8 8 7 5 4 3 3 3 2 3 4
14 16 16 17 17 18 20 19 19 18 17 17 17 16 16 17 16 16 15 17 19 20 20 20 21 22 23 21 19 21 23 23 24 24 23 23 23 23 23 22 22 22 20 17 16 16 17 18 18 17 17 17 17 17 18 18 18 18 17 14 13 12 12 11 10 8 8 8 9 9 9 9 9 9 8 8 7 6 4 3 3 3 3 3 3
17 18 18 17 18 21 22 21 21 21 21 20 18 17 15 16 17 17 17 18 20 21 22 21 21 21 22 21 20 21 23 23 24 25 24 24 24 24 23 23 22 22 21 18 17 16 17 18 17 17 17 17 17 18 18 19 19 19 17 16 14 13 13 12 11 9 9 9 9 10 10 10 10 9 8 8 7 6 4 4 4 4 3 2 3
18 19 18 18 19 22 23 22 22 22 22 19 17 18 15 15 17 17 18 19 22 22 23 23 21 20 20 19 19 20 24 24 24 25 24 24 24 24 24 23 22 22 20 18 18 17 17 18 17 17 17 17 18 18 18 19 19 18 17 16 15 15 14 13 12 11 10 9 9 10 10 10 9 8 8 8 7 6 5 4 4 4 4 3 2
18 19 19 19 19 21 23 22 23 23 22 19 20 21 17 17 18 19 19 20 22 23 22 22 21 20 19 19 18 18 24 26 25 25 24 24 24 24 24 24 23 23 21 19 19 18 18 18 18 18 17 17 18 18 19 19 19 18 17 16 16 16 16 15 14 13 11 10 10 10 10 10 8 8 8 8 7 6 5 5 5 5 4 3 2
18 18 17 17 18 19 21 22 22 22 22 21 21 21 19 19 20 20 21 21 23 23 21 21 21 21 20 20 19 18 23 28 26 25 25 24 24 24 24 24 23 23 22 21 20 19 18 18 18 18 18 18 18 18 19 19 19 18 16 15 17 18 17 16 15 14 13 11 11 11 10 9 8 7 8 8 7 6 5 5 5 5 5 4 3
17 16 15 15 16 17 19 20 20 20 20 21 20 20 20 20 21 21 22 23 23 24 23 22 22 22 22 21 21 20 23 29 28 26 25 24 24 24 23 23 23 23 22 22 21 21 21 19 18 17 18 18 18 19 19 19 19 18 16 16 17 19 19 18 17 16 14 13 12 11 10 9 7 7 8 8 7 6 6 6 6 6 6 4 3
16 16 15 14 15 15 16 17 19 19 19 20 20 20 20 20 21 21 22 23 24 25 25 25 23 23 24 23 22 20 22 28 30 28 26 24 23 23 23 23 23 23 23 22 22 22 22 22 21 19 18 17 18 18 19 20 20 19 17 16 17 20 20 19 19 17 16 15 13 12 11 10 8 7 8 9 7 6 6 7 6 6 6 5 4
17 16 15 14 14 15 15 16 16 17 17 18 19 19 20 20 21 21 23 24 25 25 25 25 24 24 25 24 23 21 20 25 31 31 27 25 24 23 23 23 24 24 24 23 23 22 22 22 22 22 21 19 18 18 19 21 21 20 19 18 18 19 21 21 20 19 18 16 15 14 12 11 9 8 9 9 8 7 7 8 7 7 7 6 5
16 15 15 14 14 14 14 14 14 15 15 15 16 17 18 19 20 22 23 23 23 23 24 24 23 23 25 23 22 22 21 23 30 33 30 27 26 26 25 25 25 26 26 25 24 23 23 22 22 22 22 23 22 21 20 21 22 22 21 20 19 19 21 22 21 20 19 17 16 15 14 12 11 10 10 10 9 8 9 9 9 8 8 7 6
15 14 14 13 12 13 12 12 13 14 14 14 15 15 17 18 20 22 21 20 20 22 22 22 21 21 22 21 20 21 22 23 28 33 32 29 28 28 27 27 27 27 27 27 26 25 24 23 22 22 22 23 24 24 21 21 22 23 24 23 21 20 21 22 22 21 20 18 17 17 16 13 12 12 11 10 10 9 10 10 10 10 9 8 7
14 13 12 11 11 11 12 12 13 14 14 14 15 15 17 18 20 21 19 18 19 21 21 19 20 20 19 19 20 22 22 22 26 33 35 31 30 30 29 29 28 28 27 26 26 26 25 24 23 23 22 22 23 24 23 22 22 23 24 25 23 22 21 23 23 22 21 20 19 18 17 14 13 13 12 11 10 11 11 11 11 11 10 9 8
13 11 10 9 11 12 12 13 13 14 15 14 15 16 18 19 20 20 18 18 20 20 21 19 20 21 20 19 21 23 23 23 25 31 36 34 32 31 30 30 29 29 28 26 26 26 25 24 23 23 23 23 22 23 23 23 22 23 24 24 24 23 22 23 23 23 22 21 20 20 18 15 14 14 13 11 11 11 12 12 12 11 11 10 10
11 9 9 9 11 12 13 13 13 14 14 14 14 16 18 19 21 21 19 20 22 21 21 20 21 23 23 24 25 24 23 25 26 30 35 36 33 32 31 31 29 29 29 27 27 26 25 25 24 23 23 23 22 22 22 22 21 23 24 24 24 23 22 23 23 23 23 22 21 21 19 17 15 15 13 12 12 12 13 13 12 12 11 11 11
9 7 8 10 11 12 12 12 13 13 14 14 15 16 18 20 22 22 21 21 22 22 22 21 22 22 23 27 30 28 25 26 28 30 34 36 35 33 31 31 30 30 29 29 27 26 26 25 24 24 23 23 23 22 22 21 21 22 24 24 24 24 23 22 23 23 23 23 22 22 21 18 17 16 14 13 13 13 13 13 13 13 12 12 12
7 7 9 11 12 12 11 12 13 15 16 16 17 18 19 21 23 24 23 22 22 23 22 23 24 22 23 26 29 29 27 27 29 30 32 35 36 34 32 32 31 31 30 30 28 27 26 26 26 25 24 24 23 22 22 22 21 22 24 24 24 24 23 22 22 22 22 23 23 23 22 20 19 18 16 14 14 14 14 14 14 14 13 13 12
6 7 10 12 12 11 11 12 15 16 17 18 19 20 21 22 24 25 26 25 23 24 23 24 26 25 24 25 27 27 26 27 30 31 31 33 34 34 33 32 32 32 32 31 30 28 27 27 27 26 26 25 25 24 23 23 22 22 23 24 23 24 23 23 22 23 23 22 23 23 23 22 21 19 18 16 15 15 15 14 14 14 14 14 13
7 8 10 12 12 11 11 13 15 16 17 18 19 21 22 23 25 27 28 28 26 25 25 26 27 27 26 26 27 27 26 28 32 33 32 33 33 32 32 32 32 32 33 33 32 31 29 29 28 27 27 27 26 26 25 24 23 22 23 23 23 24 24 23 23 23 23 22 23 24 24 23 22 21 20 18 17 16 16 15 15 15 15 15 14
7 8 10 12 12 10 11 13 15 16 17 18 20 20 22 23 25 28 29 29 28 26 26 26 27 28 27 27 29 28 26 30 34 35 34 34 33 32 32 31 31 32 33 34 34 33 32 31 29 28 28 28 27 27 26 25 24 23 23 24 24 24 25 24 23 23 24 23 22 24 25 24 23 23 22 20 19 18 17 16 16 16 16 16 15
8 8 9 12 11 10 11 13 14 16 17 19 20 20 21 22 24 27 29 29 28 27 26 27 27 27 26 27 29 30 29 32 36 36 35 34 33 32 31 31 31 31 33 34 35 34 34 32 31 30 29 29 28 28 28 26 25 25 25 25 25 25 26 26 24 24 24 24 23 24 25 24 23 24 23 21 20 19 18 17 17 17 16 16 16
8 8 9 11 12 11 12 14 15 16 17 19 19 21 22 22 22 23 26 28 28 27 27 27 26 25 25 27 30 30 30 33 36 37 35 34 32 31 30 30 30 31 32 33 34 34 34 34 32 31 30 30 29 29 29 28 27 26 27 27 27 26 27 27 25 24 25 24 23 23 24 24 23 23 23 22 22 21 20 18 18 18 18 17 17
9 8 9 11 13 13 14 15 16 17 18 20 21 23 25 25 24 20 22 25 26 26 27 27 26 26 25 27 31 31 30 34 37 37 35 33 32 31 30 28 28 30 32 33 34 34 34 35 34 33 31 31 31 30 29 29 28 28 28 27 27 27 27 28 27 26 26 25 23 23 24 23 22 23 23 23 23 22 21 20 19 19 19 18 17
11 9 8 11 13 13 14 16 17 18 19 21 23 25 26 27 26 21 19 21 22 24 28 28 27 29 26 22 27 32 31 32 36 37 36 33 32 33 31 28 28 31 32 33 34 34 34 34 35 34 33 33 33 32 30 30 29 29 28 28 28 29 28 29 28 27 27 26 25 24 23 23 22 23 24 23 24 24 23 22 22 21 20 19 19
11 10 9 10 12 13 14 16 17 19 21 22 24 25 26 26 25 21 17 17 18 20 26 29 29 32 28 19 20 28 31 32 35 36 35 33 33 34 32 30 30 31 32 33 33 33 33 33 33 33 33 33 34 34 32 31 31 30 30 29 29 30 30 29 29 27 27 27 26 24 24 23 23 24 25 24 24 25 25 25 24 23 22 21 20
11 11 10 10 11 13 14 15 17 19 20 22 23 24 24 24 24 20 15 15 18 19 23 27 29 32 31 23 18 21 27 31 34 33 32 32 32 33 31 31 31 31 32 32 31 32 33 33 33 33 33 33 34 34 33 32 32 32 31 31 31 31 31 30 29 28 27 28 27 26 25 23 23 24 25 25 25 25 26 26 26 25 24 23 22
11 11 11 11 11 12 14 15 16 18 20 21 22 22 22 21 21 19 15 13 16 18 21 24 26 29 31 29 24 21 23 26 32 33 31 30 30 31 31 32 33 32 31 31 30 31 32 34 35 34 33 33 33 34 35 34 34 34 34 33 32 32 32 31 30 29 28 28 28 27 26 23 22 23 24 25 25 25 26 27 27 26 26 25 24
11 11 11 11 11 12 13 15 16 18 19 20 20 21 21 19 18 17 14 12 13 15 18 21 22 25 28 28 27 25 24 25 29 32 32 31 30 31 31 32 33 31 29 30 30 31 31 33 36 35 35 34 34 35 36 36 36 36 36 36 35 34 34 33 31 30 28 28 29 29 28 25 23 23 24 25 25 25 26 27 27 27 27 27 26
12 12 12 12 12 12 13 15 16 17 18 20 20 20 20 19 17 15 13 11 11 13 15 18 21 22 24 25 25 25 25 25 28 31 33 33 31 30 30 29 29 27 26 28 29 30 29 31 34 35 35 35 35 36 37 36 36 37 37 37 37 36 36 35 33 31 29 29 30 30 29 27 25 24 25 25 25 25 25 26 27 27 28 28 28
13 12 12 12 13 14 14 15 16 17 18 19 20 20 20 19 17 15 14 12 11 11 12 15 18 20 21 23 23 23 22 23 26 30 33 35 34 31 30 28 25 24 26 27 28 28 27 28 31 32 33 33 34 36 36 34 35 37 38 38 38 38 37 36 35 33 31 31 31 31 31 29 27 26 26 26 26 25 25 26 27 27 28 28 28
13 12 12 13 13 14 14 15 16 16 17 18 20 20 20 20 18 16 15 14 13 12 13 13 14 16 18 19 21 22 22 20 22 27 31 34 36 34 32 30 26 25 28 29 30 30 29 29 29 30 31 32 32 33 33 33 34 37 39 38 38 39 39 37 37 35 33 32 33 33 32 31 30 29 29 28 27 26 26 26 27 27 27 27 27
12 11 12 13 13 13 14 15 16 17 17 18 19 19 20 20 19 18 16 15 14 13 13 13 13 14 15 16 17 19 22 20 19 22 26 30 34 34 32 32 30 29 30 31 33 33 31 31 31 31 32 33 34 32 31 32 33 34 36 37 38 40 41 40 39 37 36 34 34 34 34 34 32 31 31 30 29 28 27 27 27 28 28 27 27
12 11 12 13 13 13 13 14 15 16 17 17 18 19 19 19 19 19 17 16 15 15 14 14 14 14 14 14 14 15 19 21 20 19 22 24 28 31 32 33 34 33 32 30 31 33 34 33 34 35 34 36 36 34 32 33 33 33 34 35 37 40 42 42 41 39 38 37 36 36 35 35 34 34 33 32 31 30 29 28 29 29 29 29 29
12 12 14 14 14 13 13 14 15 16 16 17 17 18 19 19 18 18 18 17 16 16 16 15 15 15 15 15 15 15 15 19 21 21 21 22 23 25 29 33 35 36 35 34 32 33 35 35 36 36 35 35 36 35 35 35 35 36 36 36 37 38 41 42 42 41 40 39 39 38 37 37 37 36 35 34 33 32 31 30 30 30 30 30 30
15 14 15 15 14 14 14 15 15 15 16 16 17 17 18 18 18 18 17 17 16 16 16 16 16 16 16 16 16 16 16 16 18 19 21 22 22 23 25 30 33 35 36 37 35 34 35 36 37 37 35 35 35 36 37 35 34 35 37 38 38 38 39 41 41 41 41 40 40 39 39 39 39 38 37 36 35 34 33 32 31 31 32 32 32
18 15 14 15 14 14 15 16 16 15 15 15 16 17 18 18 18 18 17 17 17 16 16 15 16 16 16 17 17 16 17 17 17 18 19 21 23 23 24 25 29 33 34 36 36 34 34 37 37 37 37 37 36 36 37 37 36 36 38 39 37 36 38 40 42 42 42 41 41 41 41 41 41 40 39 38 36 34 34 33 33 33 33 33 33
18 15 14 15 15 14 15 16 17 16 15 15 15 16 17 18 18 18 17 17 18 17 17 16 16 16 16 17 17 17 17 17 18 18 18 19 22 23 23 23 25 29 31 33 33 32 32 35 37 37 38 38 38 37 37 39 41 42 43 42 40 39 38 40 43 43 44 44 42 41 42 42 42 41 39 38 36 35 35 34 34 35 35 34 34
17 16 15 16 16 15 15 16 16 17 16 15 15 15 17 18 18 18 18 17 17 18 18 18 17 17 17 17 17 17 17 18 18 18 18 19 20 22 23 24 24 25 28 31 32 32 35 37 38 37 37 39 40 39 38 39 42 44 46 46 46 45 42 42 44 45 44 43 42 41 41 42 43 41 39 38 37 37 36 37 37 37 37 37 36
17 16 16 16 16 16 16 16 17 17 17 17 16 16 16 17 18 19 19 17 17 17 18 19 18 18 18 18 18 18 18 18 18 18 18 18 19 21 23 25 26 25 26 30 31 32 33 35 33 31 33 37 39 39 38 38 40 42 44 44 45 44 43 42 44 46 45 43 42 41 40 41 42 40 39 39 39 39 39 39 39 40 39 39 39
17 17 16 16 17 18 17 17 17 18 18 18 17 16 17 17 18 19 19 19 18 16 16 17 18 19 18 18 18 18 18 18 19 19 19 19 19 20 22 24 25 26 26 27 30 31 32 33 33 33 34 37 39 38 39 40 40 40 40 41 42 42 43 43 44 46 47 45 44 43 40 39 40 39 39 40 40 40 40 41 41 41 41 41 41
19 18 17 18 19 20 20 19 19 19 19 19 18 18 18 17 18 19 20 20 19 18 16 16 16 17 18 19 19 19 19 19 19 19 19 19 19 19 21 22 23 25 26 26 28 29 29 30 33 35 36 38 40 40 40 40 40 39 39 40 42 43 44 45 45 46 48 48 47 45 43 41 41 41 42 42 41 40 41 41 41 42 42 42 42
23 20 19 20 21 22 22 20 20 20 20 20 19 19 19 18 18 19 20 20 20 19 18 17 15 15 15 17 18 19 20 20 20 19 19 19 20 20 20 21 22 23 24 25 27 28 28 26 27 30 33 35 38 41 41 41 39 38 38 39 41 42 44 45 44 44 46 48 48 46 44 43 42 42 44 45 43 41 40 40 41 42 44 44 44
Wind_Direction
268 265 265 263 261 263 263 264 265 268 268 266 263 262 263 265 268 271 275 277 279 279 279 277 276 276 275 275 274 271 265 258 250 247 251 257 261 253 237 226 220 216 214 213 210 208 206 206 212 214 212 211 215 221 226 234 247 273 290 299 300 298 293 285 274 265 258 251 242 238 235 226 206 192 193 199 204 210 284 349 351 353 357 359 359
260 253 255 258 260 264 265 263 262 264 267 269 270 270 270 270 272 274 277 279 281 282 282 281 280 278 278 278 278 276 272 265 257 249 246 249 256 257 246 233 226 220 217 216 214 213 209 205 209 215 214 212 214 220 226 234 243 261 281 292 295 296 294 286 277 269 263 259 251 243 239 230 208 194 200 206 211 216 258 341 344 347 353 356 357
262 256 255 262 268 270 269 265 263 266 269 272 274 275 276 275 274 273 274 276 278 280 282 283 283 282 281 280 280 279 278 273 266 257 250 247 250 255 251 241 233 227 222 221 218 217 214 206 207 215 217 214 213 218 225 231 237 250 268 281 289 295 294 287 280 274 268 263 256 245 240 236 220 205 204 209 215 223 241 307 333 345 352 353 356
268 263 259 265 272 272 270 268 267 269 270 273 275 276 276 276 276 275 275 276 277 278 279 280 282 284 284 282 280 279 279 278 273 267 258 250 246 248 250 245 239 234 228 225 223 220 219 212 209 216 220 217 216 220 226 230 234 245 258 272 286 294 294 291 284 276 268 262 256 247 239 238 232 222 215 212 219 230 243 277 328 347 351 351 356
264 266 267 268 268 269 268 267 267 267 270 272 274 275 274 275 276 277 278 278 279 280 281 281 280 281 284 284 281 279 278 278 277 273 265 254 247 244 244 243 240 236 232 229 228 226 224 220 215 220 223 221 222 227 230 232 233 240 251 264 278 288 292 292 287 277 268 261 256 248 240 240 240 234 224 218 221 237 249 271 326 345 348 351 356
272 278 280 275 271 271 271 269 269 269 271 272 273 275 275 275 275 275 275 276 276 277 279 280 280 278 278 281 281 279 276 276 276 275 269 258 250 246 243 242 238 234 232 231 232 231 230 227 221 222 227 226 229 235 236 236 234 236 244 255 267 280 290 294 287 276 267 260 255 248 245 245 245 239 229 222 222 237 250 269 319 340 346 352 358
294 292 292 288 283 281 280 279 277 273 273 273 274 276 276 274 271 270 270 271 272 272 273 275 276 277 275 273 275 276 274 273 273 273 271 262 253 251 248 244 241 234 231 231 234 235 234 232 227 226 230 231 235 239 238 236 235 234 238 247 260 276 289 293 284 273 266 261 258 253 251 251 251 246 237 228 224 235 250 266 307 332 345 355 0
302 300 300 298 295 292 288 286 283 280 278 278 277 273 271 269 267 267 268 269 270 269 270 271 272 274 276 272 269 270 270 268 268 268 268 266 257 251 248 247 244 239 233 232 234 235 235 234 230 228 232 236 239 239 237 235 234 234 235 241 252 266 278 281 275 270 267 265 263 259 255 255 257 255 248 237 227 232 248 265 295 324 345 357 1
301 298 300 300 298 295 292 289 285 281 278 276 275 273 271 269 268 268 267 266 267 267 267 269 271 273 277 275 266 264 266 263 263 263 263 263 259 251 244 241 240 237 232 231 232 232 233 233 231 230 232 237 243 243 237 235 235 235 234 237 244 254 264 270 270 269 269 266 263 260 258 258 259 259 255 248 235 230 246 267 283 311 342 359 360
294 290 291 290 288 286 284 281 277 272 269 269 270 271 271 272 273 272 269 267 265 265 265 265 267 269 272 274 265 259 261 261 258 258 258 257 258 254 246 239 234 232 230 230 231 231 232 232 231 231 232 234 241 247 242 238 237 237 236 236 240 248 258 265 270 270 267 265 262 260 260 259 258 258 258 254 244 234 243 266 279 299 337 356 356
287 283 281 278 278 281 277 273 272 269 267 267 265 267 269 270 271 273 273 270 267 265 265 264 263 262 262 263 261 255 254 256 256 254 254 253 254 254 249 242 235 234 232 233 234 232 232 233 233 233 234 233 236 244 246 242 241 241 240 238 238 244 254 263 269 269 265 263 263 262 261 259 257 256 256 255 249 240 241 262 277 290 326 349 351
286 281 278 276 279 281 277 274 274 270 264 263 262 261 264 268 269 269 269 269 268 268 268 267 263 262 261 257 252 248 245 247 250 250 249 250 251 251 249 244 239 236 231 230 234 234 234 233 234 235 237 237 236 240 243 242 241 241 240 239 239 242 251 259 265 266 264 262 262 264 262 259 256 252 252 252 249 244 243 257 275 288 308 334 345
288 284 281 282 283 282 279 276 275 273 268 263 259 256 259 265 269 269 266 265 267 269 269 269 267 264 265 260 248 239 237 239 244 245 244 244 246 247 246 245 243 241 234 229 231 234 236 234 233 235 238 240 240 240 242 243 242 240 237 237 239 241 247 255 261 263 263 261 261 264 262 258 254 251 250 250 249 247 248 257 271 284 293 313 340
288 286 285 285 284 282 283 283 282 284 282 276 269 266 267 271 273 274 270 266 266 267 268 270 270 265 265 262 249 235 229 231 239 242 241 240 241 243 243 244 244 243 239 234 233 234 237 237 233 233 236 241 243 243 244 246 246 243 238 236 238 241 245 252 258 261 260 260 258 261 261 257 254 252 252 251 249 247 250 255 263 273 282 294 326
290 289 289 287 285 284 286 288 287 289 290 288 282 276 277 278 277 277 274 270 268 268 268 270 270 265 260 257 250 236 225 226 234 237 238 237 237 239 240 241 242 241 237 233 233 234 237 239 237 235 233 237 244 246 247 247 248 247 241 237 240 242 245 249 254 259 259 258 257 259 261 259 256 257 257 254 249 248 251 255 258 265 273 283 305
292 291 291 289 286 284 285 285 285 284 283 283 282 281 283 281 277 276 274 272 270 269 269 268 269 263 255 251 250 240 225 223 229 234 234 234 233 234 235 236 238 240 238 234 233 233 234 237 239 238 235 234 241 247 248 249 249 247 242 240 245 246 245 247 250 256 259 258 257 258 260 260 258 261 261 255 250 249 254 258 259 262 267 273 288
294 295 294 291 287 285 283 283 282 282 283 283 286 288 287 282 278 276 273 271 269 267 264 264 266 262 251 245 247 242 227 222 225 231 233 232 231 231 231 233 235 237 238 237 236 235 235 234 235 237 237 235 239 245 247 248 248 246 243 242 247 249 248 247 248 252 256 258 257 257 257 259 257 260 263 256 249 249 254 259 259 259 262 264 272
301 300 296 292 288 285 283 282 284 286 288 290 291 291 289 284 281 277 273 268 264 262 259 260 262 260 252 242 241 240 228 222 223 228 231 232 232 230 230 231 234 235 235 237 238 237 236 235 233 232 232 233 236 242 245 245 246 247 247 243 246 250 249 248 248 250 253 256 258 257 255 256 254 252 257 254 247 250 256 260 261 259 258 258 262
302 300 297 293 290 287 285 285 285 287 290 292 292 291 289 286 282 277 271 264 261 261 259 262 261 257 255 245 236 234 229 223 222 225 228 230 232 231 230 232 233 234 233 234 235 236 235 234 235 233 231 227 227 234 241 246 248 251 251 247 245 248 251 249 249 249 251 255 259 258 254 253 252 248 249 250 247 249 256 263 265 262 259 256 255
301 300 297 293 293 292 291 290 290 291 291 291 290 288 286 283 281 275 270 265 263 264 263 265 261 252 253 245 234 232 230 226 222 221 224 227 230 231 230 232 233 234 233 233 234 235 236 237 237 237 235 230 226 225 234 245 250 253 254 250 247 247 250 249 248 249 250 253 257 259 255 253 254 252 249 252 252 252 256 262 265 264 260 256 253
300 298 295 296 299 299 299 300 300 299 296 294 290 286 283 280 277 272 269 265 261 263 263 263 253 243 246 240 230 230 228 226 223 219 221 225 229 231 231 232 234 235 234 234 234 236 237 239 239 238 237 235 232 227 232 244 250 253 255 253 249 247 249 249 248 248 250 250 253 257 257 256 258 258 255 256 260 262 263 264 266 266 263 258 253
297 293 296 303 306 308 310 310 307 305 301 297 292 286 281 277 274 271 270 267 261 261 259 253 244 238 240 233 224 227 225 224 223 218 219 224 229 232 233 233 234 235 235 233 232 234 236 237 238 238 238 238 238 234 234 242 248 252 254 254 253 250 250 251 249 246 247 248 250 254 256 255 257 259 258 258 262 268 270 270 269 268 266 262 256
293 292 302 311 314 315 315 313 310 306 302 297 291 284 279 275 273 274 272 266 263 261 254 248 245 243 242 234 229 232 231 229 226 220 219 223 229 232 233 234 234 235 235 233 232 232 233 235 237 238 239 239 241 241 240 240 245 250 252 254 255 254 253 253 251 248 247 247 248 252 253 253 255 257 257 260 264 269 274 275 274 273 271 267 260
291 299 315 319 319 318 316 314 311 307 302 297 290 284 280 275 274 275 269 258 257 254 249 250 252 249 246 240 236 235 236 235 227 221 220 223 228 232 233 234 235 235 235 234 233 232 231 232 234 237 240 241 241 243 244 240 241 247 250 252 255 256 256 255 253 251 250 248 248 250 252 253 256 256 256 259 263 266 271 274 275 276 274 271 266
297 313 324 323 321 319 317 317 314 311 305 299 292 286 281 277 275 275 269 259 254 249 245 248 248 246 246 242 238 234 232 231 224 220 220 223 228 230 231 233 234 235 235 234 234 234 233 232 233 236 239 242 242 242 244 241 239 244 248 250 254 257 259 258 256 254 254 253 251 251 253 253 255 256 255 256 259 262 267 271 273 275 275 274 270
305 319 326 326 323 319 318 320 319 315 308 303 297 291 285 279 276 274 271 264 256 251 249 248 246 245 246 246 241 233 228 225 221 219 220 223 227 228 229 230 232 233 233 234 234 234 234 234 234 235 237 240 242 241 242 243 240 243 248 249 252 257 261 261 260 259 257 257 255 254 253 254 255 255 255 254 256 260 264 268 271 273 275 275 274
307 318 329 331 326 320 317 320 319 315 309 305 300 296 291 284 279 274 271 265 257 253 250 249 249 248 248 249 246 236 228 224 222 223 222 224 227 228 228 228 229 231 231 231 232 232 232 232 233 234 236 237 239 239 239 241 242 243 249 251 252 256 261 262 262 262 260 257 257 256 253 253 254 254 254 253 255 257 260 264 269 271 273 275 275
304 319 333 335 329 319 314 317 317 313 310 306 303 300 295 289 282 276 271 266 259 254 250 248 248 247 246 247 246 237 229 230 229 228 227 225 228 230 230 229 228 229 230 230 230 231 231 231 232 233 235 236 237 237 237 238 240 242 248 252 253 255 259 261 262 262 262 259 256 256 254 253 253 253 252 252 253 255 258 261 265 269 272 274 275
302 317 333 337 329 316 313 316 316 315 313 311 308 305 300 293 285 277 272 266 260 255 250 248 248 247 244 241 242 235 229 237 235 230 230 229 231 233 233 232 232 232 232 231 231 231 231 232 231 231 233 234 234 235 236 236 237 239 243 248 251 252 255 257 259 259 260 260 256 255 254 253 253 253 253 252 253 254 257 260 264 267 270 273 275
297 313 331 337 329 318 319 321 321 320 319 317 314 313 310 303 292 279 271 266 259 252 247 247 247 246 245 239 238 232 228 236 234 228 229 229 230 233 235 236 237 239 240 238 235 233 233 233 233 232 232 233 233 234 234 234 234 236 238 242 245 247 250 253 255 255 256 259 258 255 254 253 253 254 254 254 254 254 256 260 263 266 269 272 275
290 308 328 336 330 325 328 328 327 326 324 322 324 326 326 322 310 288 272 263 255 248 243 242 240 239 244 241 236 231 230 234 232 227 225 224 226 231 235 240 243 246 246 244 242 238 237 237 237 236 236 235 235 234 234 234 232 233 236 238 240 242 246 251 254 255 255 257 258 256 254 252 252 252 253 253 253 253 255 257 259 262 266 269 273
289 303 325 335 333 331 334 334 331 329 329 331 336 339 339 338 331 308 279 262 252 244 237 237 233 231 240 244 237 233 234 233 229 226 223 221 223 229 234 236 242 247 248 247 245 243 241 240 240 240 240 240 239 237 235 235 233 232 235 237 239 239 241 246 252 254 254 255 255 254 252 250 249 249 249 250 251 252 253 253 255 258 262 265 269
290 298 321 334 335 334 336 336 333 332 335 340 344 346 346 345 341 326 293 266 251 239 234 232 229 231 241 245 234 230 231 227 222 222 221 221 223 228 231 228 229 238 244 246 245 245 245 243 242 242 243 244 244 242 238 236 235 234 235 237 239 238 238 243 249 252 253 253 253 251 248 245 244 246 245 245 247 249 250 250 251 254 257 260 264
294 297 314 329 335 334 335 336 334 336 341 346 350 350 349 350 347 334 305 273 255 241 233 230 227 233 243 246 227 220 220 219 220 222 221 221 224 228 230 229 228 231 238 243 243 245 247 246 244 243 244 245 246 245 241 238 236 236 235 235 237 238 238 242 246 250 252 253 254 252 248 243 242 244 243 242 242 245 246 247 248 250 253 256 259
303 304 312 323 331 332 333 335 336 339 344 349 353 353 351 352 351 340 313 277 261 251 238 231 229 233 243 247 235 216 213 218 222 225 225 223 226 230 231 233 235 235 236 240 243 245 247 247 245 243 244 246 247 246 244 240 238 238 237 236 237 237 238 241 245 247 249 252 254 253 248 244 243 244 245 243 241 243 244 246 246 248 250 253 255
311 312 315 320 327 331 332 334 338 342 346 351 356 356 352 351 351 345 323 286 266 258 248 241 238 241 248 252 249 231 218 219 220 222 226 226 227 230 232 234 238 239 238 239 241 245 248 247 244 243 244 247 247 246 245 243 241 239 238 237 237 238 239 241 244 246 247 249 251 250 246 242 241 245 248 246 244 244 245 247 247 248 249 250 252
311 315 318 319 324 330 332 334 339 342 345 351 357 359 356 351 349 346 332 302 276 265 257 254 253 254 256 257 254 243 229 222 219 219 222 222 223 228 232 235 239 240 239 238 239 243 247 248 245 243 244 246 247 247 246 245 245 242 239 237 235 236 238 241 244 246 247 248 249 248 244 240 239 242 247 247 245 244 245 247 248 249 250 250 251
308 313 317 319 324 329 333 335 337 341 344 348 355 1 359 354 348 343 336 316 288 274 266 264 265 266 267 263 256 247 237 231 226 223 222 219 222 230 233 234 235 237 240 240 241 241 243 247 248 244 243 245 245 246 246 246 248 247 243 238 235 235 238 241 243 244 245 247 247 246 245 242 239 241 244 245 245 244 244 246 248 249 250 251 252
306 310 315 319 324 328 332 334 335 339 342 345 351 358 360 357 351 343 336 327 309 294 283 275 274 275 278 275 264 253 246 243 237 232 229 225 228 234 232 229 229 234 239 242 244 242 239 241 243 241 240 244 245 243 242 244 248 250 247 242 237 234 236 240 242 242 243 244 243 243 243 242 241 241 243 244 244 245 245 246 248 249 250 252 253
305 308 313 316 321 326 329 331 332 336 340 343 347 352 356 357 354 347 337 329 320 309 299 291 283 279 280 280 274 261 255 258 252 243 238 233 234 236 231 227 229 231 232 237 242 241 240 241 240 240 239 241 244 241 238 241 247 249 247 245 241 236 235 238 240 240 241 241 241 240 240 241 241 241 242 243 244 245 247 248 250 252 253 255 255
300 303 309 314 319 323 326 328 329 332 336 340 343 347 350 353 353 349 342 331 323 315 305 297 290 284 283 282 279 268 258 261 265 257 248 243 241 239 233 228 230 232 230 235 240 237 237 242 244 242 239 240 245 242 236 239 245 247 245 243 242 238 235 237 239 240 240 239 239 240 241 241 241 241 241 242 243 245 248 250 252 254 256 258 258
291 294 304 310 315 319 322 325 326 327 331 335 339 342 343 346 348 348 345 336 326 320 314 306 299 294 292 289 287 278 260 256 265 268 261 258 255 249 241 235 234 234 232 235 241 237 233 239 244 245 243 242 246 245 241 244 248 250 249 245 242 240 238 238 239 240 239 238 238 240 242 243 242 242 242 242 243 244 246 249 251 254 256 258 259
285 289 299 304 310 315 318 320 322 323 325 330 334 336 337 338 340 342 342 341 333 324 317 312 308 304 301 299 295 291 276 261 265 271 268 268 269 262 252 246 243 241 236 233 235 233 233 238 241 245 249 250 251 249 248 251 254 255 257 251 243 240 239 238 239 240 240 239 239 240 242 243 243 242 243 243 244 246 246 247 249 252 255 256 258
285 288 294 297 303 311 314 317 318 318 321 325 328 329 330 331 332 334 335 336 335 330 321 314 310 307 303 302 299 295 291 279 272 271 268 268 271 271 263 256 253 250 245 241 238 234 235 239 240 240 245 250 253 254 253 253 254 256 260 255 245 241 240 238 238 239 240 241 243 245 244 243 242 241 242 243 244 246 248 249 250 252 254 255 257
287 288 289 291 297 305 310 314 314 314 316 320 323 324 323 323 325 327 327 327 328 328 327 321 315 310 305 302 301 297 294 290 284 277 272 268 267 272 272 264 259 256 251 248 246 242 239 241 243 243 242 242 245 251 254 255 256 257 260 257 247 242 242 239 237 237 239 242 244 248 247 243 241 240 241 242 244 246 248 251 252 254 255 257 258
287 285 287 290 294 300 307 311 310 310 311 314 319 320 319 319 318 320 320 319 320 320 323 325 322 318 313 306 302 298 295 292 290 285 280 273 268 271 274 270 265 260 255 251 249 249 250 250 251 251 246 240 238 244 250 252 254 255 258 257 253 251 247 241 238 238 239 242 243 246 247 246 243 241 241 242 245 247 250 253 255 257 258 259 260
284 283 286 290 290 294 303 307 306 306 307 308 312 316 316 316 315 315 315 313 312 312 314 317 320 321 320 316 310 304 299 294 291 289 285 280 273 272 272 270 267 261 256 253 251 252 256 258 259 256 249 241 239 243 248 250 249 250 253 254 254 255 254 247 241 239 240 243 246 248 249 249 246 243 241 242 244 247 249 252 254 257 258 259 260
280 281 285 289 288 290 297 302 301 301 302 303 305 309 312 313 314 313 312 311 307 304 304 305 308 312 315 316 315 312 306 300 294 290 287 284 279 276 273 272 272 266 255 250 252 255 255 254 254 252 248 244 244 248 252 251 249 249 250 251 251 253 254 252 245 241 239 240 246 250 250 249 246 242 242 243 245 246 248 251 252 253 254 256 258
277 278 282 287 287 289 293 295 295 295 298 299 300 302 306 309 311 312 311 310 307 303 297 294 295 298 302 305 307 308 308 304 299 293 289 285 282 280 278 277 277 276 268 256 254 258 261 258 255 254 250 246 246 251 254 253 251 251 251 250 251 252 253 255 252 247 241 237 241 248 249 247 244 241 242 244 247 249 251 253 253 252 252 252 254
276 273 278 286 288 288 290 290 288 289 293 296 296 298 301 305 307 309 309 308 307 305 300 295 292 291 293 294 295 297 298 299 298 295 291 286 283 281 280 281 280 280 279 272 264 262 264 265 262 260 258 252 248 249 252 253 254 256 256 254 253 254 254 257 258 254 246 239 239 244 248 249 247 245 245 246 248 252 254 255 254 252 251 251 250
279 274 276 284 287 286 287 287 284 284 289 292 293 295 298 301 303 304 305 305 304 304 304 303 302 300 297 294 292 291 290 290 290 290 290 288 285 282 279 280 281 281 281 280 276 272 269 268 265 261 259 256 252 250 250 250 253 255 257 257 257 256 256 258 259 256 249 242 240 243 247 250 251 252 253 252 252 253 255 255 254 253 252 252 251
Height
5837 5837 5837 5837 5837 5838 5838 5839 5839 5840 5840 5840 5840 5841 5841 5842 5842 5843 5843 5843 5844 5844 5845 5845 5846 5846 5847 5847 5848 5848 5849 5850 5850 5850 5850 5850 5850 5850 5850 5850 5850 5851 5851 5851 5852 5853 5853 5854 5855 5856 5856 5857 5857 5858 5859 5859 5860 5860 5860 5860 5860 5861 5861 5860 5860 5861 5861 5861 5861 5861 5861 5861 5861 5861 5861 5861 5861 5860 5860 5860 5860 5860 5859 5859 5858
5835 5835 5835 5835 5836 5837 5837 5838 5838 5838 5838 5838 5839 5839 5839 5840 5840 5841 5841 5842 5842 5843 5843 5844 5845 5846 5846 5847 5848 5848 5849 5849 5850 5850 5849 5849 5849 5850 5850 5850 5850 5850 5850 5851 5851 5852 5853 5854 5854 5855 5856 5856 5856 5857 5858 5858 5859 5859 5860 5860 5860 5860 5860 5860 5860 5860 5860 5861 5860 5860 5861 5861 5860 5860 5860 5861 5861 5860 5860 5860 5860 5860 5859 5859 5858
5833 5833 5833 5834 5835 5835 5836 5836 5836 5836 5836 5836 5837 5837 5837 5838 5838 5839 5840 5840 5840 5840 5841 5842 5844 5844 5845 5846 5847 5847 5848 5849 5849 5849 5849 5849 5849 5849 5849 5849 5849 5850 5850 5850 5851 5851 5852 5853 5854 5855 5855 5856 5856 5856 5857 5858 5858 5859 5859 5859 5859 5860 5860 5860 5860 5860 5860 5860 5860 5860 5860 5860 5860 5860 5860 5860 5860 5860 5860 5860 5860 5859 5859 5859 5858
5831 5831 5832 5833 5833 5834 5834 5834 5835 5835 5835 5835 5835 5835 5835 5836 5836 5837 5838 5838 5839 5839 5839 5840 5841 5842 5843 5844 5845 5846 5847 5847 5848 5848 5848 5849 5849 5849 5849 5849 5849 5849 5849 5850 5850 5851 5852 5853 5853 5854 5855 5855 5855 5856 5857 5857 5858 5858 5858 5859 5859 5859 5859 5859 5859 5860 5860 5860 5860 5860 5859 5860 5860 5860 5860 5860 5860 5860 5860 5860 5859 5859 5859 5858 5858
5829 5830 5831 5831 5832 5832 5832 5833 5833 5833 5833 5833 5833 5833 5833 5834 5834 5835 5836 5837 5837 5837 5838 5838 5839 5840 5841 5842 5843 5844 5845 5846 5847 5847 5848 5848 5847 5848 5848 5848 5848 5848 5849 5849 5850 5850 5851 5852 5853 5854 5854 5855 5855 5855 5856 5857 5857 5858 5858 5858 5859 5859 5858 5859 5859 5859 5859 5859 5859 5859 5859 5859 5859 5860 5860 5860 5860 5860 5860 5860 5859 5859 5859 5858 5858
5828 5829 5829 5830 5830 5831 5831 5831 5831 5831 5831 5831 5831 5831 5831 5832 5833 5833 5834 5834 5835 5835 5836 5836 5837 5837 5838 5839 5841 5841 5842 5844 5845 5846 5847 5847 5846 5846 5847 5847 5847 5847 5848 5848 5849 5850 5851 5851 5852 5853 5854 5854 5854 5855 5856 5857 5857 5857 5857 5858 5858 5858 5858 5858 5858 5859 5859 5859 5859 5858 5859 5859 5859 5859 5859 5859 5860 5860 5860 5859 5859 5859 5858 5858 5857
5827 5828 5828 5828 5828 5829 5829 5829 5829 5829 5829 5829 5829 5829 5829 5830 5830 5831 5832 5832 5832 5833 5833 5834 5834 5835 5835 5836 5838 5839 5840 5841 5843 5844 5845 5846 5846 5846 5846 5846 5846 5847 5847 5847 5848 5849 5850 5850 5851 5852 5853 5853 5854 5854 5856 5856 5857 5857 5857 5857 5858 5857 5857 5858 5858 5858 5858 5858 5858 5858 5858 5858 5858 5859 5859 5859 5859 5859 5859 5859 5859 5858 5858 5857 5857
5826 5826 5826 5826 5826 5827 5827 5828 5827 5827 5827 5827 5827 5827 5827 5827 5828 5829 5829 5830 5830 5831 5831 5832 5832 5833 5833 5834 5835 5837 5839 5839 5841 5842 5844 5844 5845 5845 5845 5844 5845 5845 5845 5846 5847 5848 5849 5850 5850 5851 5852 5852 5853 5854 5855 5856 5856 5856 5856 5857 5857 5857 5857 5857 5857 5858 5858 5858 5857 5857 5857 5857 5858 5858 5859 5859 5859 5859 5859 5859 5858 5858 5858 5857 5857
5825 5825 5825 5825 5825 5825 5825 5825 5825 5825 5825 5825 5825 5824 5824 5824 5825 5826 5827 5828 5828 5829 5829 5830 5830 5831 5831 5832 5833 5835 5837 5838 5839 5840 5841 5843 5843 5844 5844 5844 5844 5844 5845 5845 5846 5847 5848 5848 5849 5850 5851 5851 5852 5853 5854 5855 5855 5855 5856 5856 5856 5856 5856 5856 5857 5857 5857 5857 5857 5857 5857 5857 5857 5858 5858 5859 5858 5858 5858 5858 5858 5858 5857 5857 5856
5824 5824 5824 5823 5823 5823 5822 5822 5822 5822 5822 5822 5822 5822 5822 5822 5823 5824 5825 5825 5826 5826 5827 5827 5828 5828 5829 5829 5830 5832 5835 5836 5837 5838 5839 5840 5842 5842 5842 5843 5843 5843 5844 5844 5845 5846 5846 5847 5848 5849 5849 5850 5851 5852 5853 5854 5854 5855 5855 5855 5855 5856 5856 5856 5856 5856 5856 5856 5856 5856 5856 5856 5857 5857 5858 5858 5858 5858 5858 5858 5858 5857 5857 5857 5856
5822 5822 5822 5821 5821 5820 5819 5819 5819 5818 5819 5819 5819 5818 5819 5819 5820 5822 5823 5823 5824 5824 5824 5825 5825 5826 5826 5827 5828 5830 5832 5834 5835 5836 5837 5838 5839 5840 5841 5841 5841 5842 5842 5843 5843 5844 5845 5846 5847 5848 5848 5849 5850 5851 5853 5853 5853 5854 5854 5855 5855 5855 5855 5855 5855 5855 5855 5856 5856 5856 5856 5856 5856 5857 5857 5857 5858 5857 5857 5857 5857 5857 5857 5857 5856
5821 5820 5820 5819 5819 5817 5816 5815 5815 5815 5814 5815 5814 5814 5814 5816 5817 5819 5820 5821 5821 5821 5822 5822 5823 5823 5823 5823 5825 5827 5829 5831 5833 5834 5835 5836 5837 5838 5838 5839 5839 5840 5840 5841 5842 5843 5843 5844 5846 5846 5847 5848 5849 5850 5851 5852 5852 5853 5854 5854 5854 5855 5855 5855 5855 5855 5855 5855 5855 5856 5856 5856 5856 5856 5856 5856 5857 5857 5857 5857 5857 5857 5857 5857 5856
5819 5818 5818 5818 5817 5815 5813 5812 5813 5812 5812 5812 5811 5810 5810 5812 5814 5816 5817 5818 5819 5819 5819 5819 5820 5821 5821 5821 5821 5823 5826 5829 5830 5832 5832 5833 5834 5835 5836 5837 5837 5837 5837 5838 5840 5841 5842 5843 5844 5845 5846 5847 5848 5849 5850 5850 5851 5852 5853 5853 5853 5854 5854 5854 5854 5854 5854 5855 5855 5855 5855 5855 5855 5855 5855 5856 5856 5856 5856 5856 5857 5857 5857 5856 5856
5816 5816 5816 5816 5815 5813 5811 5810 5811 5811 5810 5811 5811 5809 5808 5809 5811 5813 5815 5815 5816 5816 5816 5816 5817 5818 5818 5818 5818 5820 5822 5826 5828 5829 5830 5831 5832 5833 5834 5834 5835 5836 5836 5837 5838 5839 5841 5841 5843 5844 5844 5846 5847 5847 5848 5849 5849 5850 5851 5852 5853 5853 5853 5854 5854 5854 5854 5854 5854 5855 5855 5855 5854 5854 5854 5855 5855 5856 5856 5856 5856 5857 5857 5856 5856
5814 5814 5813 5813 5813 5812 5810 5810 5809 5808 5809 5810 5811 5809 5807 5807 5809 5811 5812 5813 5813 5813 5813 5813 5813 5814 5815 5815 5816 5817 5819 5822 5825 5827 5828 5828 5829 5830 5832 5832 5833 5834 5835 5835 5837 5838 5839 5840 5841 5842 5843 5844 5845 5846 5847 5847 5848 5849 5850 5851 5851 5852 5852 5853 5853 5853 5853 5853 5854 5854 5854 5854 5854 5854 5854 5855 5855 5855 5856 5856 5856 5856 5856 5856 5856
5812 5812 5812 5811 5811 5810 5809 5808 5808 5807 5808 5808 5808 5807 5805 5806 5807 5809 5810 5810 5810 5810 5810 5810 5810 5811 5812 5812 5813 5814 5816 5819 5822 5824 5825 5826 5827 5828 5829 5830 5831 5832 5833 5834 5835 5836 5837 5839 5840 5841 5842 5843 5844 5845 5846 5846 5846 5847 5849 5850 5850 5851 5851 5852 5852 5853 5853 5853 5853 5853 5854 5854 5854 5854 5854 5854 5855 5855 5855 5855 5856 5856 5856 5856 5856
5810 5810 5810 5809 5809 5809 5808 5807 5806 5806 5806 5805 5805 5804 5804 5805 5806 5807 5807 5807 5807 5807 5807 5806 5807 5807 5808 5808 5810 5811 5813 5816 5819 5821 5823 5824 5825 5826 5827 5828 5830 5830 5831 5832 5833 5834 5835 5837 5839 5840 5841 5842 5843 5844 5844 5845 5845 5846 5848 5849 5849 5849 5850 5851 5851 5852 5852 5852 5852 5853 5853 5853 5853 5853 5854 5854 5854 5854 5855 5855 5855 5856 5856 5856 5855
5808 5808 5808 5808 5807 5807 5807 5806 5805 5804 5803 5803 5802 5802 5803 5803 5804 5805 5805 5804 5803 5803 5802 5802 5803 5804 5804 5805 5806 5808 5810 5813 5816 5818 5820 5822 5823 5824 5825 5826 5828 5828 5830 5831 5831 5832 5834 5835 5837 5838 5839 5840 5841 5842 5843 5843 5843 5844 5846 5847 5848 5848 5849 5850 5850 5851 5851 5852 5852 5853 5853 5853 5853 5853 5853 5854 5854 5854 5854 5855 5855 5855 5855 5855 5855
5806 5806 5806 5806 5805 5805 5805 5804 5804 5803 5802 5802 5801 5801 5801 5802 5802 5802 5801 5800 5799 5799 5799 5800 5800 5801 5802 5802 5803 5805 5807 5810 5813 5816 5818 5820 5821 5821 5823 5824 5825 5826 5827 5828 5829 5830 5832 5833 5835 5836 5837 5838 5839 5840 5841 5842 5842 5842 5844 5846 5847 5847 5847 5848 5849 5850 5850 5851 5852 5852 5853 5853 5853 5852 5853 5853 5853 5854 5854 5854 5854 5855 5855 5855 5855
5804 5804 5804 5803 5803 5803 5803 5802 5802 5802 5801 5801 5801 5800 5800 5800 5800 5798 5797 5797 5798 5797 5798 5798 5798 5799 5799 5800 5801 5803 5804 5806 5809 5813 5815 5817 5818 5818 5819 5821 5822 5823 5824 5826 5827 5828 5829 5830 5832 5834 5835 5836 5837 5838 5839 5840 5840 5841 5842 5843 5845 5846 5846 5847 5848 5849 5849 5850 5851 5852 5852 5852 5852 5852 5853 5853 5853 5853 5854 5854 5854 5854 5854 5854 5854
5802 5802 5801 5801 5801 5800 5800 5800 5800 5799 5799 5799 5799 5799 5798 5797 5796 5795 5794 5795 5796 5795 5796 5796 5795 5796 5797 5798 5799 5800 5802 5803 5806 5809 5812 5813 5814 5815 5817 5818 5819 5820 5821 5823 5824 5825 5827 5828 5829 5831 5833 5834 5836 5836 5837 5838 5839 5839 5839 5841 5842 5844 5844 5845 5846 5847 5848 5849 5850 5851 5851 5851 5852 5852 5852 5852 5853 5853 5853 5853 5854 5854 5854 5854 5854
5800 5800 5800 5799 5798 5798 5798 5797 5797 5797 5797 5797 5797 5797 5796 5794 5793 5792 5793 5794 5794 5793 5793 5793 5793 5794 5795 5796 5797 5798 5799 5800 5803 5805 5808 5810 5811 5812 5814 5815 5816 5817 5819 5820 5821 5822 5824 5825 5827 5828 5830 5832 5833 5835 5836 5837 5837 5838 5838 5838 5840 5842 5843 5843 5845 5846 5846 5847 5849 5850 5850 5850 5851 5851 5852 5852 5852 5853 5853 5853 5853 5854 5854 5854 5853
5799 5799 5798 5797 5796 5796 5795 5795 5795 5795 5795 5795 5795 5794 5793 5792 5790 5789 5791 5792 5791 5791 5791 5791 5792 5793 5794 5795 5796 5797 5798 5798 5800 5802 5804 5806 5808 5809 5811 5813 5814 5815 5816 5818 5818 5819 5821 5823 5824 5826 5828 5829 5831 5832 5834 5835 5836 5837 5837 5836 5837 5839 5841 5842 5843 5844 5845 5846 5847 5848 5849 5849 5850 5851 5851 5851 5851 5852 5852 5853 5853 5853 5853 5853 5853
5798 5797 5796 5796 5795 5794 5794 5793 5793 5793 5793 5793 5793 5792 5791 5790 5788 5787 5789 5789 5788 5788 5789 5790 5791 5791 5792 5793 5793 5794 5796 5796 5797 5799 5801 5803 5805 5806 5808 5810 5811 5812 5814 5815 5816 5817 5818 5820 5822 5823 5825 5827 5829 5830 5831 5833 5834 5835 5835 5835 5836 5837 5839 5841 5842 5842 5843 5844 5845 5847 5848 5848 5849 5850 5850 5850 5851 5851 5852 5852 5852 5852 5852 5852 5852
5796 5796 5795 5794 5793 5793 5792 5792 5792 5792 5792 5791 5791 5790 5789 5787 5785 5785 5786 5786 5785 5786 5787 5788 5788 5789 5791 5791 5791 5792 5793 5794 5795 5796 5798 5800 5802 5804 5806 5807 5809 5810 5811 5812 5814 5815 5816 5818 5819 5821 5823 5824 5826 5827 5829 5830 5832 5833 5834 5834 5834 5835 5838 5839 5840 5841 5842 5843 5844 5845 5846 5847 5848 5849 5849 5849 5850 5850 5851 5851 5851 5851 5851 5852 5852
5795 5794 5793 5793 5792 5792 5791 5791 5791 5790 5790 5789 5788 5788 5787 5785 5784 5782 5783 5783 5784 5784 5785 5785 5786 5788 5789 5789 5789 5789 5790 5791 5792 5793 5795 5797 5799 5801 5803 5804 5806 5807 5808 5810 5811 5812 5814 5815 5817 5818 5820 5822 5823 5825 5826 5828 5829 5831 5832 5833 5833 5834 5836 5838 5839 5839 5841 5841 5842 5844 5845 5846 5846 5847 5848 5848 5848 5849 5850 5850 5850 5850 5850 5851 5851
5793 5793 5792 5791 5791 5790 5790 5790 5790 5789 5788 5787 5786 5785 5784 5783 5781 5780 5780 5780 5781 5782 5783 5783 5784 5786 5787 5787 5787 5787 5788 5789 5790 5791 5793 5795 5796 5798 5800 5801 5803 5804 5806 5807 5808 5810 5811 5812 5814 5816 5817 5819 5821 5822 5823 5825 5827 5829 5830 5831 5832 5833 5834 5836 5837 5837 5838 5840 5841 5842 5843 5844 5845 5846 5846 5847 5847 5848 5848 5849 5849 5849 5849 5849 5850
5792 5791 5791 5790 5790 5789 5789 5789 5788 5788 5787 5786 5784 5783 5782 5780 5779 5777 5777 5777 5777 5778 5779 5779 5780 5781 5783 5784 5784 5785 5786 5787 5789 5790 5791 5793 5794 5796 5797 5799 5801 5802 5803 5805 5806 5807 5808 5809 5811 5812 5814 5816 5818 5819 5821 5822 5824 5826 5828 5829 5830 5831 5832 5833 5835 5835 5836 5838 5839 5840 5841 5842 5843 5844 5844 5845 5845 5846 5847 5847 5847 5848 5848 5848 5848
5790 5790 5790 5789 5789 5789 5788 5788 5787 5786 5785 5784 5783 5781 5780 5778 5776 5774 5773 5773 5774 5775 5776 5776 5776 5778 5779 5780 5780 5781 5783 5784 5787 5789 5790 5791 5793 5795 5796 5798 5799 5800 5801 5802 5803 5804 5805 5807 5808 5809 5811 5813 5815 5816 5818 5820 5821 5823 5824 5826 5828 5829 5829 5830 5832 5833 5834 5836 5837 5838 5838 5840 5841 5842 5842 5843 5844 5845 5845 5846 5846 5846 5847 5847 5847
5789 5789 5788 5788 5788 5788 5787 5786 5786 5784 5783 5782 5781 5779 5777 5775 5773 5771 5770 5770 5770 5771 5772 5773 5774 5775 5775 5776 5776 5778 5779 5781 5783 5785 5787 5789 5791 5793 5795 5797 5798 5799 5800 5801 5802 5802 5803 5804 5806 5807 5808 5810 5812 5813 5815 5817 5818 5820 5821 5823 5825 5826 5827 5828 5829 5830 5831 5833 5835 5836 5836 5837 5839 5840 5841 5842 5843 5843 5844 5844 5844 5845 5845 5846 5846
5787 5787 5787 5787 5787 5786 5786 5785 5784 5783 5782 5780 5778 5776 5774 5772 5770 5768 5767 5766 5767 5768 5769 5769 5771 5772 5772 5772 5773 5775 5777 5778 5780 5782 5783 5785 5788 5790 5793 5795 5797 5798 5799 5800 5800 5800 5801 5802 5804 5805 5807 5808 5809 5811 5812 5814 5816 5817 5818 5820 5822 5823 5824 5825 5827 5828 5829 5831 5833 5834 5834 5835 5836 5838 5839 5840 5841 5841 5842 5842 5843 5843 5844 5844 5844
5786 5786 5786 5786 5785 5785 5784 5783 5782 5781 5780 5778 5776 5773 5771 5769 5767 5765 5763 5763 5764 5765 5766 5766 5768 5769 5770 5770 5770 5772 5774 5776 5777 5779 5781 5783 5785 5787 5789 5792 5795 5797 5797 5798 5798 5799 5799 5800 5801 5803 5805 5806 5807 5809 5810 5812 5813 5814 5816 5817 5819 5821 5822 5823 5824 5825 5826 5828 5830 5831 5832 5833 5834 5835 5836 5837 5838 5839 5840 5840 5841 5841 5842 5842 5843
5785 5785 5785 5784 5784 5783 5782 5781 5780 5779 5777 5775 5773 5771 5768 5766 5764 5762 5760 5760 5760 5762 5763 5764 5765 5766 5766 5767 5767 5768 5771 5773 5774 5776 5779 5781 5783 5783 5785 5788 5790 5793 5795 5795 5795 5796 5797 5798 5799 5801 5803 5804 5805 5806 5808 5809 5811 5812 5813 5815 5817 5818 5820 5821 5821 5823 5824 5825 5827 5828 5829 5830 5831 5832 5833 5834 5835 5836 5837 5838 5838 5839 5840 5840 5841
5783 5783 5783 5783 5782 5782 5781 5780 5779 5777 5775 5773 5770 5768 5766 5764 5762 5760 5758 5758 5758 5759 5760 5761 5763 5763 5763 5763 5764 5765 5768 5771 5772 5774 5776 5778 5780 5780 5782 5784 5785 5787 5790 5791 5792 5794 5794 5796 5797 5798 5800 5801 5802 5804 5805 5806 5808 5809 5811 5812 5814 5815 5817 5818 5819 5820 5822 5823 5824 5826 5827 5827 5828 5829 5830 5831 5832 5833 5834 5835 5836 5836 5837 5838 5839
5782 5782 5782 5781 5781 5780 5780 5779 5777 5776 5773 5771 5769 5767 5765 5763 5761 5759 5758 5757 5757 5757 5758 5759 5760 5761 5760 5761 5761 5763 5765 5767 5769 5771 5773 5775 5777 5778 5780 5782 5782 5784 5785 5787 5789 5791 5791 5793 5794 5796 5797 5798 5799 5801 5802 5803 5805 5807 5808 5809 5811 5813 5814 5815 5816 5817 5819 5820 5821 5823 5824 5825 5825 5827 5827 5828 5829 5830 5831 5832 5833 5834 5835 5836 5836
5780 5780 5780 5780 5779 5779 5778 5777 5776 5774 5772 5770 5768 5766 5764 5762 5761 5759 5758 5757 5757 5757 5757 5758 5759 5759 5758 5758 5760 5760 5762 5763 5766 5769 5771 5773 5775 5776 5778 5779 5780 5781 5783 5784 5786 5787 5788 5790 5791 5793 5794 5795 5796 5797 5799 5801 5802 5804 5805 5807 5808 5810 5811 5813 5813 5815 5816 5817 5818 5820 5821 5822 5823 5824 5825 5826 5826 5827 5828 5829 5830 5831 5832 5833 5834
5778 5778 5778 5778 5777 5777 5776 5776 5774 5773 5772 5770 5768 5766 5764 5762 5761 5760 5759 5757 5757 5757 5757 5757 5757 5757 5757 5757 5758 5759 5760 5761 5764 5766 5768 5770 5772 5774 5776 5777 5778 5779 5780 5780 5781 5783 5785 5787 5788 5790 5791 5792 5793 5794 5795 5797 5799 5800 5802 5803 5804 5806 5808 5810 5811 5812 5814 5815 5815 5817 5818 5819 5820 5821 5822 5823 5824 5824 5825 5826 5828 5829 5830 5830 5831
5777 5777 5776 5776 5775 5775 5774 5774 5773 5772 5771 5769 5767 5765 5764 5762 5761 5761 5760 5758 5757 5757 5757 5756 5756 5756 5756 5756 5758 5758 5759 5760 5762 5764 5766 5768 5769 5771 5773 5774 5775 5776 5777 5777 5778 5779 5782 5784 5785 5786 5788 5788 5789 5791 5792 5794 5795 5796 5798 5799 5801 5803 5804 5806 5808 5809 5811 5812 5813 5814 5815 5816 5817 5818 5819 5820 5821 5822 5823 5824 5825 5826 5827 5828 5829
5776 5775 5775 5774 5773 5773 5772 5772 5771 5771 5770 5768 5766 5765 5763 5762 5761 5761 5760 5759 5758 5757 5756 5756 5756 5756 5756 5756 5756 5758 5758 5759 5760 5761 5763 5764 5765 5767 5769 5770 5772 5773 5774 5775 5776 5776 5778 5780 5780 5781 5783 5783 5785 5786 5788 5790 5791 5793 5793 5795 5797 5799 5801 5803 5804 5805 5807 5808 5809 5810 5811 5812 5814 5815 5816 5817 5818 5819 5820 5821 5823 5824 5824 5825 5826
5775 5774 5774 5773 5772 5771 5771 5770 5770 5769 5768 5767 5766 5764 5763 5762 5761 5761 5760 5759 5758 5757 5757 5756 5755 5755 5755 5755 5755 5756 5757 5758 5758 5759 5759 5760 5762 5763 5765 5766 5767 5769 5771 5772 5772 5773 5775 5775 5776 5777 5778 5779 5780 5782 5784 5786 5788 5789 5790 5792 5793 5795 5797 5798 5800 5801 5802 5804 5806 5807 5808 5809 5810 5811 5813 5814 5815 5816 5818 5819 5820 5821 5822 5823 5824
5774 5773 5772 5772 5771 5770 5769 5769 5768 5767 5767 5766 5765 5764 5762 5762 5761 5760 5760 5759 5759 5758 5757 5756 5755 5755 5754 5754 5754 5755 5756 5757 5757 5757 5757 5757 5758 5760 5761 5762 5763 5765 5767 5767 5768 5770 5772 5773 5774 5775 5776 5777 5777 5779 5781 5783 5784 5786 5787 5788 5790 5791 5793 5794 5795 5797 5798 5800 5802 5804 5805 5805 5806 5808 5809 5811 5812 5814 5815 5816 5818 5819 5820 5820 5821
5773 5772 5771 5771 5770 5769 5768 5767 5767 5766 5765 5765 5764 5763 5762 5761 5760 5760 5759 5759 5758 5757 5757 5756 5755 5754 5754 5753 5753 5753 5754 5755 5756 5756 5756 5756 5756 5757 5758 5759 5760 5761 5763 5764 5765 5767 5769 5770 5770 5771 5773 5774 5775 5776 5778 5779 5781 5783 5784 5786 5786 5787 5789 5790 5792 5793 5795 5796 5798 5800 5802 5803 5803 5804 5806 5808 5809 5811 5812 5813 5814 5816 5816 5817 5818
5772 5771 5771 5770 5769 5768 5767 5766 5766 5765 5764 5763 5762 5762 5761 5761 5760 5759 5759 5758 5757 5757 5756 5755 5755 5754 5753 5752 5752 5752 5752 5753 5754 5754 5754 5754 5754 5755 5755 5756 5757 5758 5760 5761 5762 5763 5765 5766 5766 5767 5769 5770 5771 5773 5774 5776 5777 5779 5781 5782 5783 5783 5785 5786 5788 5790 5791 5793 5794 5796 5798 5799 5800 5801 5803 5804 5806 5807 5809 5810 5811 5812 5813 5814 5815
5770 5770 5770 5769 5768 5767 5766 5765 5764 5763 5763 5762 5761 5760 5760 5760 5759 5758 5757 5757 5756 5756 5755 5754 5754 5753 5753 5752 5752 5751 5751 5751 5752 5752 5752 5753 5753 5753 5753 5754 5754 5755 5756 5757 5758 5759 5761 5762 5762 5763 5765 5767 5768 5769 5770 5772 5773 5775 5776 5778 5779 5780 5781 5782 5784 5786 5788 5789 5791 5792 5794 5795 5796 5798 5799 5801 5803 5804 5805 5806 5807 5809 5810 5811 5812
5768 5768 5768 5767 5766 5766 5765 5764 5763 5762 5761 5760 5760 5759 5759 5758 5758 5757 5756 5756 5755 5755 5754 5753 5753 5752 5752 5751 5751 5751 5750 5750 5750 5750 5750 5750 5751 5752 5752 5752 5752 5753 5753 5754 5756 5757 5758 5759 5760 5761 5761 5763 5764 5765 5767 5768 5770 5771 5772 5773 5775 5776 5778 5778 5780 5783 5784 5786 5787 5788 5789 5790 5792 5794 5796 5798 5799 5801 5802 5803 5804 5805 5806 5808 5809
5767 5767 5766 5766 5765 5764 5763 5762 5762 5761 5760 5759 5759 5758 5757 5757 5757 5756 5755 5755 5754 5753 5753 5752 5751 5751 5750 5750 5749 5749 5749 5748 5748 5748 5748 5748 5749 5749 5750 5750 5750 5750 5751 5752 5753 5754 5755 5756 5757 5758 5758 5759 5760 5761 5763 5764 5765 5766 5768 5769 5771 5772 5774 5775 5776 5779 5780 5781 5783 5784 5785 5786 5789 5791 5793 5795 5796 5798 5799 5801 5802 5803 5804 5805 5806
5765 5765 5764 5764 5763 5763 5762 5761 5760 5759 5759 5758 5757 5757 5756 5756 5755 5755 5754 5754 5753 5752 5752 5751 5750 5749 5749 5748 5748 5747 5747 5747 5746 5746 5746 5746 5746 5746 5747 5748 5748 5748 5749 5750 5751 5752 5753 5753 5754 5754 5755 5756 5757 5757 5758 5759 5760 5761 5763 5765 5766 5768 5770 5771 5772 5775 5777 5778 5779 5780 5781 5783 5785 5787 5789 5791 5793 5794 5796 5797 5799 5799 5800 5801 5802
5762 5762 5762 5762 5762 5761 5760 5759 5758 5758 5757 5756 5756 5755 5755 5754 5754 5753 5753 5753 5752 5752 5751 5750 5749 5748 5748 5747 5746 5746 5745 5745 5744 5744 5744 5744 5744 5744 5744 5744 5745 5746 5747 5748 5749 5749 5749 5750 5750 5751 5751 5752 5753 5754 5754 5755 5755 5756 5758 5760 5761 5763 5764 5766 5768 5770 5772 5775 5775 5776 5777 5779 5781 5783 5785 5786 5788 5790 5792 5793 5794 5795 5796 5796 5797
5760 5760 5760 5760 5759 5759 5758 5757 5757 5756 5755 5755 5754 5754 5753 5753 5752 5752 5751 5751 5751 5751 5750 5749 5748 5748 5747 5746 5745 5745 5744 5743 5743 5743 5742 5742 5742 5741 5741 5742 5742 5743 5744 5745 5745 5746 5746 5746 5747 5747 5748 5749 5750 5750 5750 5751 5752 5752 5754 5755 5757 5758 5759 5761 5763 5765 5767 5770 5772 5772 5773 5774 5776 5778 5780 5781 5783 5785 5787 5788 5789 5790 5791 5792 5792
5758 5758 5758 5757 5757 5757 5756 5755 5755 5754 5753 5753 5752 5752 5751 5751 5751 5750 5749 5749 5749 5749 5748 5748 5747 5746 5746 5745 5744 5744 5743 5743 5742 5741 5741 5741 5740 5740 5739 5739 5740 5740 5741 5741 5742 5743 5743 5743 5743 5744 5744 5745 5746 5747 5747 5748 5749 5749 5750 5751 5752 5754 5755 5756 5757 5760 5762 5765 5768 5768 5769 5770 5772 5773 5774 5775 5778 5780 5782 5783 5784 5785 5786 5787 5788
5755 5755 5755 5755 5754 5754 5754 5753 5752 5752 5751 5751 5750 5750 5749 5749 5749 5748 5748 5747 5747 5747 5746 5746 5746 5745 5744 5743 5742 5742 5741 5741 5740 5740 5739 5739 5738 5738 5738 5737 5737 5737 5738 5738 5739 5739 5739 5740 5740 5740 5741 5742 5742 5743 5744 5745 5746 5746 5746 5747 5748 5750 5751 5752 5753 5755 5757 5759 5763 5765 5765 5765 5767 5769 5769 5769 5773 5775 5777 5778 5779 5780 5780 5781 5782